Torna al catalogo

COSMOS 676

AttivoMilitareLEO
NORAD 7433·PAYLOAD·🇷🇺 Russia

Lanciato Sep 11, 1974 da Plesetsk Cosmodrome

Loading…

Prossimi Passaggi (prossime 24 ore)

TLE

AggiornatoSource: Space-Track

Epoca: Sep 14, 2026, 13:10 UTC

1 07433U 74071A   26257.54880901  .00000085  00000-0  39995-4 0  9995
2 07433  74.0475 299.7620 0012569 127.3925 232.8373 14.33551668715657

Traccia COSMOS 676 in tempo reale con AllMySat

Download on the App Store